Lid_Strength_Index
-1 -0 2 4 11 12 15 13 9 11 12 12 12 14 16 15 13 14 11 10 10 11 9 8 3 2 1 1 1 0 0 0 0 -0 -0 -0 -0 -0 -0 -1 -1 -1 -1 -1 -1 -1 -1 -1 -1
0 0 3 6 13 16 15 11 11 12 12 11 12 13 15 17 13 13 13 10 10 9 9 7 2 2 1 1 1 0 0 0 -0 -0 -0 -0 0 0 -0 -0 -0 -0 -1 -1 -1 -1 -1 -1 -1
0 1 6 10 14 15 15 11 11 11 10 9 13 14 15 15 12 13 12 10 9 9 8 7 2 2 1 1 1 0 0 0 -0 -0 -0 -0 -0 -0 -0 0 1 1 1 1 -0 -1 -1 -1 -1
3 5 6 12 14 13 11 11 10 11 11 12 13 15 14 13 13 13 11 10 10 9 9 5 2 2 2 1 1 1 0 0 0 1 1 1 1 0 1 1 1 0 0 1 1 0 -0 -1 -0
4 6 12 13 14 13 13 11 11 13 14 13 13 16 15 12 11 11 11 10 10 10 9 7 2 2 2 2 2 1 1 1 1 2 2 2 2 2 3 2 2 2 1 0 0 1 1 0 0
7 8 12 14 14 13 15 13 12 13 14 14 14 15 15 12 11 12 11 11 10 10 9 8 4 3 3 3 3 2 2 2 2 2 2 2 2 3 3 3 3 3 3 1 0 0 0 1 1
8 10 12 14 14 14 13 13 14 15 14 14 12 15 15 13 12 12 12 11 10 10 9 9 8 6 5 4 4 3 2 2 2 2 2 2 3 3 2 2 2 2 2 2 2 1 1 0 1
6 9 12 14 14 14 14 14 13 14 15 12 13 16 17 14 12 12 11 11 10 10 9 9 10 9 9 9 4 3 2 2 2 2 2 2 3 3 3 3 3 1 1 1 2 2 2 2 2
5 11 13 13 13 15 15 14 13 12 14 13 13 14 14 12 12 12 12 12 11 9 10 10 10 10 9 7 6 4 3 3 3 4 3 5 8 7 6 3 2 2 2 2 2 2 2 3 5
9 13 13 12 13 15 13 13 14 14 15 15 14 14 13 13 14 13 13 13 12 11 10 10 10 9 9 7 8 8 8 8 8 8 8 8 8 7 4 4 3 2 3 3 2 2 3 5 8
10 13 11 12 12 12 14 14 13 15 16 15 15 15 14 14 14 13 13 13 13 12 10 9 9 9 9 9 8 9 9 9 9 8 8 8 8 8 7 6 6 7 4 6 6 6 7 7 7
12 11 11 11 11 12 14 14 15 15 15 13 13 14 15 15 14 13 13 13 13 11 10 9 9 9 9 9 10 10 9 9 9 9 8 9 8 8 8 7 7 7 7 7 7 6 6 7 7
13 13 12 12 13 14 13 15 15 16 14 13 13 14 15 14 13 12 12 12 11 11 10 9 9 10 9 10 10 10 9 9 9 9 9 9 9 8 8 7 6 6 6 6 6 6 6 6 7
12 13 13 13 14 14 15 15 15 15 14 14 14 16 16 13 13 13 12 12 11 11 10 9 9 9 9 10 10 10 10 9 9 9 9 8 8 8 8 7 7 7 5 6 6 6 5 6 6
13 15 14 15 14 14 14 16 17 15 14 15 16 18 16 13 12 13 12 11 12 11 10 9 8 9 10 10 10 10 9 9 9 9 8 9 8 8 8 7 7 6 6 5 5 5 6 5 5
14 15 17 14 14 14 14 18 16 15 16 17 17 19 16 14 13 13 11 10 11 11 10 10 8 9 10 10 10 9 9 9 9 9 9 8 8 8 8 7 6 6 6 6 5 6 5 6 6
15 17 16 15 13 14 15 17 16 15 15 17 18 18 16 14 13 12 10 10 11 11 10 10 10 10 10 10 9 10 9 10 9 9 9 9 8 8 8 6 6 6 6 6 5 5 4 5 6
17 18 16 16 14 15 16 17 16 15 15 17 18 18 18 15 13 12 10 10 10 10 10 10 10 10 10 10 10 10 10 10 9 9 9 8 8 8 7 7 6 5 5 5 6 5 5 5 5
16 16 16 15 13 15 16 16 17 16 16 17 19 19 18 15 13 12 11 10 10 10 10 10 10 10 10 11 11 11 11 10 10 9 8 8 8 7 7 6 6 5 4 4 5 5 5 5 4
15 17 18 15 13 15 17 17 17 16 16 17 18 18 18 15 13 13 11 11 11 11 11 10 10 10 10 10 11 11 11 10 10 9 8 8 8 6 6 6 6 4 3 4 4 4 5 4 4
17 18 18 18 15 15 17 19 19 17 16 17 17 17 17 15 13 13 12 12 11 11 11 10 10 10 10 10 10 10 10 9 10 9 9 8 7 7 6 5 5 3 3 4 4 3 4 4 4
18 16 15 15 18 20 18 21 20 19 18 18 20 18 18 15 13 13 12 12 12 11 11 10 10 10 9 10 10 11 11 12 11 10 9 8 7 7 6 4 3 4 4 4 4 3 4 4 5
17 15 15 15 17 19 19 21 21 19 19 19 19 18 18 14 13 13 13 11 11 11 11 11 10 10 10 10 11 11 12 11 11 11 10 9 7 7 5 3 3 4 4 4 5 4 4 3 4
15 16 16 16 18 21 19 19 21 20 18 20 19 17 16 14 13 13 12 11 11 11 11 11 10 10 10 10 11 11 12 12 11 11 11 9 8 8 5 4 3 3 4 5 5 4 4 3 3
17 19 21 21 21 20 19 20 19 19 18 18 18 18 16 14 13 13 13 12 12 11 11 10 10 10 10 11 11 11 11 11 11 11 11 11 9 8 6 4 4 4 4 4 4 4 4 3 4
19 19 21 21 22 21 19 21 19 18 17 17 17 17 15 14 12 13 12 12 12 11 11 11 11 10 10 11 11 11 11 11 10 11 11 10 10 8 7 5 4 5 4 4 3 4 3 4 5
19 20 19 21 21 22 20 19 18 18 18 18 18 17 16 13 13 13 13 12 12 12 11 11 11 10 10 10 10 11 11 10 10 11 11 11 10 8 7 7 6 6 5 5 4 4 4 3 3
19 17 20 20 23 23 21 21 20 20 19 18 19 19 17 13 13 13 12 12 12 12 12 11 10 11 10 10 10 10 11 10 10 10 11 10 10 9 8 7 7 6 7 6 6 6 5 5 6
19 20 20 20 21 23 24 20 19 18 18 19 19 18 17 14 13 13 13 12 12 12 12 11 11 11 10 10 10 10 10 10 11 10 10 10 10 9 9 9 8 7 6 7 7 7 7 7 7
19 20 19 22 22 23 24 20 17 18 17 18 19 18 17 14 13 13 13 13 12 13 12 12 11 11 10 10 11 10 10 10 11 11 10 10 10 9 9 9 9 8 6 6 6 7 6 6 7